Location: Saint-Hippolyte
(43.6394°N, 4.7559°E)
Time: 15:47:58
(UTC+00:00)

USA 281 - Pass Details

Date: 24 October 2020
Orbit: 1079 x 1080 km, 106.0° (Epoch: 23 November)

Event Time Altitude Azimuth Distance (km) Brightness Sun altitude
Rises 17:22:49 0° 166° (SSE) 3,861 6.1 -7.9°
Reaches altitude 10° 17:25:22 10° 170° (S) 2,909 5.5 -8.4°
Maximum altitude 17:31:48 60° 249° (WSW) 1,224 3.9 -9.5°
Drops below altitude 10° 17:38:18 10° 329° (NNW) 2,926 5.8 -10.7°
Sets 17:40:52 0° 333° (NNW) 3,886 6.4 -11.1°
